Overview Statistics Trail Chart Weather Telemetry Raw packets
 

This is the latest recevied weather packets stored in our database for station/object AI5BL. If no packets are shown the sender has not sent any weather packets the latest 10 day(s).

<< 111 112 113 114 >>
Time Temp. Humidity Pressure Rain* Wind** Luminosity Snow
1787802963 22.78° C 96% 1018.3 hPa 0 mm - 0 W/m² -
1787802661 22.78° C 96% 1018 hPa 0 mm - 0 W/m² -
1787802361 22.78° C 96% 1018.1 hPa 0 mm - 0 W/m² -
1787802055 22.78° C 95% 1018.2 hPa 1.78 mm - 0 W/m² -
1787801750 22.78° C 95% 1017.8 hPa 1.78 mm - 0 W/m² -
1787801446 23.33° C 94% 1017.7 hPa 1.27 mm - 0 W/m² -
1787801139 23.33° C 93% 1018 hPa 1.27 mm - 0 W/m² -
1787800838 23.33° C 93% 1018.3 hPa 0 mm - 0 W/m² -
1787800534 23.33° C 93% 1018.2 hPa 0 mm - 0 W/m² -
1787800229 23.89° C 91% 1018.4 hPa 0 mm - 0 W/m² -
1787799928 23.89° C 88% 1018.1 hPa 0 mm - 0 W/m² -
1787799627 24.44° C 85% 1018 hPa 0 mm - 0 W/m² -
1787799320 25° C 82% 1017.9 hPa 0 mm - 0 W/m² -
1787799019 25° C 81% 1018 hPa 0 mm - 0 W/m² -
1787798718 25° C 82% 1017.8 hPa 0 mm - 0 W/m² -
1787798414 25° C 81% 1017.8 hPa 0 mm - 0 W/m² -
1787798109 25° C 81% 1017.9 hPa 0 mm - 0 W/m² -
1787797807 25° C 80% 1017.9 hPa 0 mm - 0 W/m² -
1787797503 25° C 81% 1017.7 hPa 0 mm - 0 W/m² -
1787797197 25.56° C 80% 1018 hPa 0 mm - 0 W/m² -
1787796893 25.56° C 79% 1018.2 hPa 0 mm - 0 W/m² -
1787796593 26.67° C 77% 1018.2 hPa 0 mm - 0 W/m² -

* Rain latest hour (hover to see other rain measurements)
** Current wind speed in m/s (hover to see current wind gust speed)